TimeEST,TemperatureF,Dew PointF,Humidity,Sea Level PressureIn,VisibilityMPH,Wind Direction,Wind SpeedMPH,Gust SpeedMPH,PrecipitationIn,Events,Conditions,WindDirDegrees,DateUTC
12:15 AM,42.8,32.0,66,30.20,10.0,SSE,4.6,-,N/A,,Clear,150,2013-02-19 05:15:00
12:35 AM,42.8,32.0,66,30.19,10.0,Calm,Calm,-,N/A,,Clear,0,2013-02-19 05:35:00
12:55 AM,42.8,33.8,70,30.18,10.0,Calm,Calm,-,N/A,,Clear,0,2013-02-19 05:55:00
1:15 AM,41.0,33.8,76,30.17,10.0,SE,5.8,-,N/A,,Clear,140,2013-02-19 06:15:00
1:55 AM,41.0,33.8,76,30.16,10.0,SE,6.9,-,N/A,,Clear,130,2013-02-19 06:55:00
2:15 AM,41.0,33.8,76,30.15,10.0,SE,6.9,-,N/A,,Clear,140,2013-02-19 07:15:00
2:55 AM,44.6,35.6,71,30.12,10.0,SE,6.9,-,N/A,,Clear,140,2013-02-19 07:55:00
3:15 AM,42.8,35.6,76,30.11,10.0,SE,4.6,-,N/A,,Clear,130,2013-02-19 08:15:00
3:35 AM,42.8,35.6,76,30.11,10.0,SE,4.6,-,N/A,,Clear,140,2013-02-19 08:35:00
3:55 AM,42.8,37.4,81,30.10,10.0,SE,4.6,-,N/A,,Clear,140,2013-02-19 08:55:00
4:15 AM,42.8,37.4,81,30.11,10.0,SE,3.5,-,N/A,,Clear,130,2013-02-19 09:15:00
4:35 AM,42.8,37.4,81,30.10,10.0,Calm,Calm,-,N/A,,Clear,0,2013-02-19 09:35:00
4:55 AM,42.8,37.4,81,30.09,10.0,Calm,Calm,-,N/A,,Scattered Clouds,0,2013-02-19 09:55:00
5:15 AM,42.8,39.2,87,30.09,10.0,SSE,4.6,-,N/A,,Scattered Clouds,150,2013-02-19 10:15:00
5:35 AM,44.6,41.0,87,30.09,10.0,SSE,4.6,-,N/A,,Scattered Clouds,150,2013-02-19 10:35:00
5:55 AM,46.4,44.6,93,30.08,10.0,SSE,6.9,-,N/A,,Scattered Clouds,160,2013-02-19 10:55:00
6:15 AM,50.0,44.6,82,30.08,10.0,SSE,8.1,-,N/A,,Scattered Clouds,160,2013-02-19 11:15:00
6:35 AM,50.0,44.6,82,30.08,10.0,SSE,9.2,-,N/A,,Clear,160,2013-02-19 11:35:00
6:55 AM,51.8,46.4,82,30.08,10.0,South,10.4,-,N/A,,Clear,170,2013-02-19 11:55:00
7:15 AM,51.8,46.4,82,30.08,10.0,South,10.4,-,N/A,,Scattered Clouds,180,2013-02-19 12:15:00
7:35 AM,51.8,46.4,82,30.08,10.0,South,10.4,-,N/A,,Clear,180,2013-02-19 12:35:00
7:55 AM,55.4,50.0,82,30.09,10.0,South,10.4,17.3,N/A,,Clear,190,2013-02-19 12:55:00
8:15 AM,57.2,50.0,77,30.08,10.0,South,11.5,-,N/A,,Scattered Clouds,180,2013-02-19 13:15:00
8:35 AM,57.2,51.8,82,30.08,10.0,South,12.7,19.6,N/A,,Scattered Clouds,180,2013-02-19 13:35:00
8:55 AM,59.0,51.8,77,30.07,10.0,South,16.1,-,N/A,,Scattered Clouds,180,2013-02-19 13:55:00
9:15 AM,60.8,53.6,77,30.08,10.0,South,17.3,23.0,N/A,,Clear,180,2013-02-19 14:15:00
9:35 AM,59.0,53.6,82,30.08,10.0,South,15.0,23.0,N/A,Rain,Light Rain,190,2013-02-19 14:35:00
10:15 AM,59.0,57.2,94,30.08,10.0,South,8.1,-,N/A,Rain,Light Rain,190,2013-02-19 15:15:00
10:35 AM,62.6,59.0,88,30.08,10.0,SSW,13.8,21.9,N/A,,Light Drizzle,200,2013-02-19 15:35:00
10:55 AM,62.6,59.0,88,30.08,10.0,SSW,12.7,21.9,N/A,,Mostly Cloudy,200,2013-02-19 15:55:00
11:15 AM,62.6,59.0,88,30.08,7.0,SSW,13.8,23.0,N/A,Rain,Light Rain,200,2013-02-19 16:15:00
11:35 AM,62.6,59.0,88,30.08,5.0,SSW,12.7,-,N/A,,Drizzle,200,2013-02-19 16:35:00
11:55 AM,62.6,60.8,94,30.07,4.0,SSW,9.2,-,N/A,Rain,Light Rain,200,2013-02-19 16:55:00
12:15 PM,62.6,60.8,94,30.07,10.0,SSW,8.1,-,N/A,,Mostly Cloudy,210,2013-02-19 17:15:00
12:35 PM,62.6,60.8,94,30.08,2.5,West,9.2,18.4,N/A,Rain,Light Rain,270,2013-02-19 17:35:00
12:55 PM,62.6,60.8,94,30.07,10.0,SW,9.2,-,N/A,,Overcast,230,2013-02-19 17:55:00
1:15 PM,62.6,60.8,94,30.06,10.0,SW,9.2,-,N/A,,Overcast,220,2013-02-19 18:15:00
1:35 PM,62.6,60.8,94,30.06,10.0,WSW,9.2,-,N/A,,Overcast,250,2013-02-19 18:35:00
1:55 PM,64.4,62.6,94,30.05,10.0,West,6.9,-,N/A,,Overcast,270,2013-02-19 18:55:00
2:15 PM,60.8,59.0,94,30.05,10.0,NNW,9.2,-,N/A,,Overcast,340,2013-02-19 19:15:00
2:35 PM,62.6,59.0,88,30.05,10.0,NW,11.5,-,N/A,,Overcast,320,2013-02-19 19:35:00
2:55 PM,62.6,59.0,88,30.05,10.0,NNW,9.2,-,N/A,,Overcast,330,2013-02-19 19:55:00
3:15 PM,64.4,59.0,83,30.05,10.0,NW,5.8,-,N/A,,Overcast,310,2013-02-19 20:15:00
3:35 PM,64.4,59.0,83,30.05,10.0,NW,9.2,-,N/A,,Overcast,310,2013-02-19 20:35:00
3:55 PM,64.4,57.2,77,30.05,10.0,NNW,11.5,16.1,N/A,,Overcast,330,2013-02-19 20:55:00
4:15 PM,64.4,55.4,73,30.06,10.0,NW,10.4,-,N/A,,Overcast,310,2013-02-19 21:15:00
4:35 PM,64.4,55.4,73,30.06,10.0,NW,9.2,-,N/A,,Mostly Cloudy,310,2013-02-19 21:35:00
4:55 PM,66.2,55.4,68,30.06,10.0,NNW,10.4,-,N/A,,Mostly Cloudy,330,2013-02-19 21:55:00
5:15 PM,64.4,53.6,68,30.07,10.0,NW,15.0,-,N/A,,Mostly Cloudy,320,2013-02-19 22:15:00
5:35 PM,64.4,51.8,64,30.08,10.0,NW,11.5,-,N/A,,Clear,320,2013-02-19 22:35:00
6:15 PM,62.6,50.0,63,30.09,10.0,WNW,4.6,-,N/A,,Clear,290,2013-02-19 23:15:00
6:35 PM,59.0,50.0,72,30.10,10.0,West,4.6,-,N/A,,Clear,280,2013-02-19 23:35:00
7:35 PM,53.6,50.0,88,30.11,10.0,Calm,Calm,-,N/A,,Clear,0,2013-02-20 00:35:00
7:55 PM,53.6,51.8,94,30.11,10.0,Calm,Calm,-,N/A,,Clear,0,2013-02-20 00:55:00
8:35 PM,51.8,50.0,94,30.12,10.0,Calm,Calm,-,N/A,,Clear,0,2013-02-20 01:35:00
8:55 PM,50.0,48.2,94,30.12,10.0,Calm,Calm,-,N/A,,Clear,0,2013-02-20 01:55:00
9:15 PM,50.0,46.4,87,30.13,10.0,NNW,6.9,-,N/A,,Clear,330,2013-02-20 02:15:00
9:35 PM,51.8,44.6,76,30.14,10.0,NW,8.1,-,N/A,,Clear,320,2013-02-20 02:35:00
9:55 PM,53.6,42.8,67,30.14,10.0,NNW,6.9,-,N/A,,Clear,330,2013-02-20 02:55:00
10:15 PM,53.6,39.2,58,30.15,10.0,NNW,9.2,-,N/A,,Clear,330,2013-02-20 03:15:00
10:35 PM,53.6,35.6,51,30.15,10.0,NNW,6.9,-,N/A,,Clear,330,2013-02-20 03:35:00
10:55 PM,51.8,33.8,50,30.16,10.0,NNW,6.9,-,N/A,,Clear,340,2013-02-20 03:55:00
11:15 PM,51.8,33.8,50,30.16,10.0,NNW,9.2,-,N/A,,Clear,330,2013-02-20 04:15:00
11:35 PM,51.8,33.8,50,30.16,10.0,NNW,6.9,-,N/A,,Clear,330,2013-02-20 04:35:00
11:55 PM,51.8,33.8,50,30.16,10.0,NNW,8.1,-,N/A,,Clear,330,2013-02-20 04:55:00